This is the latest recevied weather packets stored in our database for station/object KF0FSA. If no packets are shown the sender has not sent any weather packets the latest 10 day(s).
| Time | Temp. | Humidity | Pressure | Rain* | Wind** | Luminosity | Snow |
|---|---|---|---|---|---|---|---|
| 1777211562 | 7.22° C | 85% | 961.8 hPa | 0 mm | - | 139 W/m² | - |
| 1777211262 | 7.22° C | 84% | 961.8 hPa | 0 mm | - | 114 W/m² | - |
| 1777210962 | 7.22° C | 84% | 961.8 hPa | 0 mm | - | 118 W/m² | - |
| 1777210662 | 7.22° C | 85% | 961.8 hPa | 0 mm | - | 135 W/m² | - |
| 1777210362 | 7.22° C | 85% | 961.8 hPa | 0 mm | - | 95 W/m² | - |
| 1777210062 | 7.22° C | 86% | 961.6 hPa | 0 mm | - | 118 W/m² | - |
| 1777209886 | 6.67° C | 87% | 961.6 hPa | 0 mm | - | 130 W/m² | - |
| 1777209456 | 6.67° C | 87% | 961.6 hPa | 0 mm | - | 115 W/m² | - |
| 1777209156 | 6.67° C | 87% | 961.6 hPa | 0 mm | - | 85 W/m² | - |
| 1777208856 | 6.67° C | 87% | 961.7 hPa | 0 mm | - | 87 W/m² | - |
| 1777208556 | 6.67° C | 87% | 961.7 hPa | 0 mm | - | 127 W/m² | - |
| 1777208253 | 6.67° C | 87% | 961.7 hPa | 0 mm | - | 95 W/m² | - |
| 1777207950 | 6.11° C | 87% | 961.8 hPa | 0 mm | - | 65 W/m² | - |
| 1777207651 | 6.11° C | 88% | 961.8 hPa | 0 mm | - | 77 W/m² | - |
| 1777207338 | 6.11° C | 88% | 961.7 hPa | 0 mm | - | 74 W/m² | - |
| 1777207039 | 6.11° C | 88% | 961.5 hPa | 0 mm | - | 72 W/m² | - |
| 1777206740 | 5.56° C | 88% | 961.5 hPa | 0 mm | - | 58 W/m² | - |
| 1777206439 | 5.56° C | 88% | 961.6 hPa | 0 mm | - | 46 W/m² | - |
| 1777206139 | 5.56° C | 88% | 961.7 hPa | 0 mm | - | 39 W/m² | - |
| 1777205963 | 5.56° C | 88% | 961.6 hPa | 0 mm | - | 34 W/m² | - |
| 1777205540 | 5.56° C | 89% | 961.4 hPa | 0 mm | - | 32 W/m² | - |
| 1777205239 | 5.56° C | 89% | 961.5 hPa | 0 mm | - | 27 W/m² | - |
| 1777204933 | 5.56° C | 89% | 961.6 hPa | 0 mm | - | 22 W/m² | - |
| 1777204777 | 5.56° C | 89% | 961.6 hPa | 0 mm | - | 18 W/m² | - |
| 1777204322 | 5.56° C | 89% | 961.6 hPa | 0 mm | - | 10 W/m² | - |
* Rain latest hour (hover to see other rain measurements)
** Current wind speed in m/s (hover to see current wind gust speed)